Theta_e
354 352 352 350 348 346 342 337 316 324 322 314 314 317 316 330 330 325 325 328 322 333 336 335 334 332 327 326 329 331 331 322 326 310 307 330 345 348 351 352 354 353 353 355 356 359 359 362 364 363 363 364 365 366 366 365 365 365 365 365 364 365 365 364 364 364 364 363 364 364 364 365 365 365 364 364 363 358 356 355 354 354 354 357 358 359 360 359 359 361 361 362 363 363 363 363 363
352 350 351 349 344 343 332 339 321 319 318 313 316 323 322 329 326 324 322 325 326 331 335 333 333 337 337 335 334 332 330 334 335 333 337 343 346 348 353 354 354 352 354 355 357 358 359 362 365 364 364 364 365 365 365 365 365 365 365 365 364 365 364 363 363 364 363 363 364 364 364 364 365 365 364 364 364 362 360 353 355 354 354 356 358 358 358 358 358 359 361 362 363 364 364 363 362
349 348 346 346 344 341 340 336 315 316 312 308 315 322 330 325 323 327 328 329 332 334 334 335 336 335 335 335 329 327 321 337 337 338 336 344 340 344 353 354 354 355 356 357 358 359 359 361 364 365 364 365 365 365 365 365 365 365 365 365 365 365 364 364 363 363 364 364 364 363 363 363 364 364 364 363 363 363 362 358 356 355 353 357 357 358 358 359 359 360 362 363 363 363 363 362 361
348 348 343 342 335 340 327 325 320 316 311 312 315 325 326 326 325 329 331 334 337 333 333 331 332 336 332 327 328 334 331 332 339 337 336 340 341 349 352 354 357 356 357 358 358 359 359 361 365 365 364 365 365 365 365 365 365 364 364 365 365 364 364 364 363 363 364 364 363 363 363 362 362 362 362 362 362 362 363 361 360 358 356 358 357 354 358 358 360 361 363 363 364 363 363 362 360
347 351 352 341 336 325 325 323 320 320 311 315 313 325 327 328 327 329 334 336 338 333 332 331 329 335 336 332 333 327 329 338 339 343 340 345 351 352 353 355 355 355 355 357 358 358 360 364 364 364 365 365 365 365 365 365 364 364 364 365 365 364 364 363 362 362 364 363 362 363 362 362 362 362 362 362 362 362 362 362 361 361 359 358 357 358 360 359 359 361 363 363 363 363 363 361 360
349 349 354 348 331 342 330 319 318 317 321 327 322 321 327 329 327 332 334 338 336 334 333 331 328 328 329 332 336 331 337 330 340 342 344 345 351 354 354 356 354 354 355 357 358 358 359 364 364 365 365 365 365 365 364 364 364 364 364 365 364 364 363 363 362 362 363 363 362 362 362 362 361 361 361 362 362 362 361 362 361 359 360 360 360 360 361 361 359 361 362 362 362 363 363 361 361
342 342 344 342 338 337 318 316 316 319 324 332 324 323 328 332 331 333 332 328 331 332 334 330 333 331 327 334 337 340 344 344 341 342 347 349 352 354 354 354 353 353 355 356 357 358 360 364 365 366 365 365 365 364 364 364 365 364 365 365 364 363 362 362 362 362 362 362 362 362 362 362 362 362 362 363 363 362 362 361 362 360 361 361 360 361 362 361 361 361 362 363 362 363 362 362 362
352 339 339 326 324 326 318 318 319 324 324 331 330 330 333 334 335 333 330 324 324 326 330 332 333 330 328 339 328 340 344 345 345 348 350 351 352 353 353 353 352 353 354 355 357 359 364 365 366 365 365 365 364 364 365 365 365 364 365 364 363 362 362 361 361 363 362 362 362 362 361 362 363 363 362 362 363 362 362 361 360 362 361 361 361 360 361 361 361 360 362 362 363 363 361 362 362
345 338 346 327 320 325 320 318 320 331 327 329 330 333 337 336 335 330 330 331 329 330 330 332 333 326 328 332 331 339 341 345 348 351 350 351 351 352 353 353 352 352 354 355 357 360 362 365 366 365 365 365 364 364 365 365 364 365 364 363 362 361 361 361 362 362 362 362 362 361 361 361 363 363 363 363 362 362 361 361 361 362 362 361 361 360 360 360 360 361 362 362 363 361 362 362 363
339 338 328 324 325 316 319 319 318 324 327 330 329 331 334 336 334 335 332 331 328 330 331 334 335 329 333 328 332 337 339 346 348 348 350 351 351 352 352 353 354 353 353 355 358 360 361 366 365 365 365 364 364 364 365 365 364 363 362 362 361 361 361 360 362 361 362 361 362 362 362 362 363 363 363 363 362 361 361 361 362 361 361 360 361 360 361 361 362 362 362 362 363 363 362 362 362
327 340 340 321 317 315 314 316 321 326 326 331 333 335 335 336 333 330 332 332 331 329 333 336 331 330 332 331 333 343 345 346 346 345 349 351 352 351 352 354 355 355 354 356 359 360 361 362 365 365 364 364 364 365 365 365 364 363 362 361 361 360 360 359 361 361 361 363 363 363 363 362 362 362 362 362 362 362 362 361 361 361 360 360 360 360 361 362 362 361 362 362 362 362 363 363 363
324 328 330 317 315 314 318 318 321 325 327 330 329 335 340 337 335 329 330 326 329 330 330 335 329 335 329 330 331 340 344 344 345 347 349 351 351 352 352 354 355 356 357 357 359 360 360 361 361 365 364 364 365 364 364 364 364 363 362 360 360 360 360 360 360 362 362 361 362 363 362 362 362 363 363 362 362 361 362 362 361 360 360 360 360 360 360 362 362 363 363 363 363 363 362 362 364
326 330 325 319 317 319 321 319 321 324 325 327 329 335 340 335 333 333 333 329 330 328 329 336 337 336 326 329 336 341 340 343 346 348 350 350 350 351 352 353 355 356 356 358 358 359 360 359 361 361 362 366 365 365 365 363 362 361 361 362 361 361 362 362 361 362 362 362 362 361 361 363 363 362 362 360 361 361 362 362 361 361 361 360 360 360 361 361 362 363 363 364 364 362 361 361 363
329 332 325 316 325 321 320 321 323 319 321 328 332 337 337 332 336 334 332 329 329 328 334 338 336 336 330 333 334 335 340 345 347 348 349 350 351 351 350 350 352 354 356 358 357 358 359 359 360 359 361 361 360 362 363 362 361 362 360 360 362 361 362 361 361 363 361 361 361 361 361 362 362 362 361 362 360 361 360 361 361 361 361 361 361 360 361 362 362 362 363 364 364 363 362 362 362
333 338 328 321 319 321 324 318 319 321 321 330 333 335 334 338 337 341 335 327 329 336 338 341 338 332 324 329 329 334 340 345 348 349 349 350 350 348 348 349 351 353 355 357 358 358 357 357 358 359 360 358 357 356 357 360 362 360 361 360 361 361 362 361 361 360 361 361 362 362 362 362 362 363 362 363 362 362 359 361 361 360 360 360 361 361 361 362 362 363 364 364 364 363 363 361 362
339 336 327 319 315 318 322 322 325 323 322 332 335 337 335 337 342 336 337 344 331 337 337 330 339 330 334 332 334 339 344 346 348 348 348 347 347 347 348 349 350 352 353 356 357 357 357 356 357 357 357 356 356 356 357 358 361 362 361 362 362 361 361 361 361 361 362 362 363 362 362 361 362 360 363 360 362 363 360 359 360 361 361 361 361 361 361 362 363 364 364 363 364 362 364 362 362
346 337 319 317 314 320 322 323 323 317 326 331 335 335 332 332 340 341 350 347 329 331 334 335 331 339 334 336 341 343 345 347 348 347 345 344 345 345 346 347 348 349 353 354 354 355 355 355 356 356 356 355 356 356 356 357 358 361 360 361 362 362 362 362 361 362 361 361 362 362 361 357 354 355 357 357 363 358 360 361 361 361 360 361 360 361 362 363 363 364 363 364 365 363 362 363 363
338 324 320 316 318 320 329 325 328 334 328 330 331 333 333 329 334 340 347 337 334 331 331 334 337 337 340 342 344 345 346 345 345 344 343 342 343 342 342 344 346 346 349 351 353 354 355 355 356 356 356 356 356 357 358 358 358 359 356 357 358 358 359 361 360 358 362 358 363 359 355 356 353 354 358 362 359 360 360 363 362 362 362 362 361 362 362 363 364 363 364 364 364 364 363 357 360
328 325 321 316 323 327 333 334 334 332 331 333 334 336 335 333 335 341 333 331 329 326 328 331 332 336 340 342 343 343 344 344 343 343 342 341 341 340 341 343 344 346 347 349 351 354 354 355 357 356 356 356 356 356 356 356 353 353 354 356 358 360 358 358 358 357 354 355 355 355 357 353 353 355 355 359 360 362 360 363 363 363 364 363 363 363 364 364 364 364 364 364 364 364 356 352 353
338 325 319 322 332 332 338 338 336 341 336 333 332 333 334 336 337 344 331 328 328 324 324 328 330 332 336 339 341 342 342 342 342 341 341 340 341 341 342 342 343 345 347 349 351 354 355 355 356 356 356 356 355 355 354 351 352 352 353 354 354 354 355 356 354 354 354 354 354 353 354 355 354 353 361 363 364 356 359 363 364 363 363 363 363 363 364 364 364 364 364 364 369 361 353 353 353
335 327 323 325 333 331 334 340 342 339 339 335 334 335 331 337 340 337 330 325 325 327 329 328 330 333 335 338 339 340 341 341 341 341 340 340 341 343 343 344 344 346 349 351 353 353 354 355 355 355 356 355 355 355 352 351 351 351 353 353 353 353 353 353 353 353 354 354 353 353 354 355 354 353 353 353 352 353 352 352 354 354 355 356 362 352 354 358 357 354 356 361 353 356 353 352 352
332 332 331 331 332 331 338 341 343 341 342 336 334 332 332 343 336 333 330 323 323 330 329 332 335 336 336 337 338 339 340 340 340 339 339 339 340 342 344 345 348 349 350 350 351 353 355 356 355 355 355 355 355 354 351 353 352 352 353 354 352 352 354 353 353 352 354 353 353 355 357 353 352 352 351 351 352 351 351 350 351 352 352 354 357 352 352 352 352 353 353 354 354 355 355 352 353
325 332 330 333 333 333 339 339 342 340 338 334 334 337 341 338 332 337 335 332 337 345 333 334 336 338 339 339 338 338 338 338 339 338 339 341 342 343 344 346 346 347 350 350 352 354 355 355 355 356 354 354 354 354 355 355 351 352 353 353 351 351 351 351 351 353 354 353 354 357 354 353 351 350 350 350 349 350 351 350 351 352 352 352 354 353 351 353 353 354 353 352 352 354 355 353 351
327 323 330 333 336 335 340 339 342 340 338 336 340 343 336 332 327 338 333 339 341 339 335 335 337 339 339 337 338 337 338 338 338 339 342 343 344 345 346 346 347 349 349 350 352 354 355 355 355 355 355 354 354 356 355 352 352 353 354 356 352 355 353 351 352 354 356 354 357 357 357 353 351 350 350 350 350 350 351 351 351 352 353 352 354 354 352 352 353 352 352 352 354 354 354 352 351
328 327 330 332 337 339 341 340 340 339 338 340 341 336 335 337 333 335 333 340 340 333 335 335 336 337 337 336 336 337 337 338 338 339 343 345 346 347 347 348 349 349 349 351 352 353 354 356 356 356 356 356 355 356 355 354 353 355 355 351 351 357 351 352 354 355 353 355 356 357 357 352 349 350 350 351 352 351 351 352 352 352 353 353 354 354 353 352 350 351 352 352 353 353 351 350 349
331 333 331 334 334 336 340 340 340 339 339 341 336 335 339 338 336 332 336 343 336 334 334 334 334 334 334 335 336 336 336 337 338 339 341 344 346 346 346 349 349 349 350 352 352 352 354 356 356 356 356 355 355 356 355 354 353 351 352 352 355 356 352 355 355 353 352 354 354 354 356 352 351 351 351 352 352 351 351 352 353 352 353 354 354 352 353 352 352 353 354 355 353 351 349 347 349
333 331 333 331 333 334 334 337 338 339 340 339 333 334 337 341 341 326 335 342 335 333 332 333 333 333 334 335 336 336 336 336 337 340 342 343 345 345 347 349 349 350 352 351 351 351 355 355 355 357 356 359 355 355 355 354 352 351 353 354 356 353 355 356 353 352 352 352 353 353 355 355 353 352 352 353 353 353 352 351 352 352 352 354 356 353 356 355 355 356 356 356 353 350 348 350 346
333 334 332 331 332 333 336 337 336 338 336 339 336 334 339 340 338 327 334 342 338 331 331 332 332 333 333 335 335 335 336 337 337 339 339 341 342 344 346 347 348 350 350 350 350 352 354 353 354 356 355 357 356 356 358 354 350 351 353 355 355 354 355 352 352 352 354 352 353 354 354 355 356 352 352 354 354 352 352 352 352 352 352 353 356 354 356 358 359 358 361 359 358 351 350 351 348
332 333 325 327 329 327 333 333 335 337 334 340 337 330 328 333 328 338 341 339 336 332 330 331 331 332 333 334 334 334 334 336 336 337 339 341 342 346 346 348 349 349 350 350 350 352 352 352 353 353 355 356 354 353 354 355 353 353 353 353 354 355 354 352 351 352 351 352 353 353 353 354 356 353 353 355 359 352 353 352 351 353 351 352 355 358 358 356 356 357 356 362 357 353 354 352 351
333 330 326 324 324 324 331 336 336 333 332 339 335 313 318 326 338 342 347 334 333 330 329 330 331 331 332 332 333 332 334 335 334 336 338 338 343 345 345 348 350 349 348 349 351 350 352 353 354 354 354 354 354 352 353 354 354 354 354 353 355 353 352 352 353 351 353 353 353 352 353 355 356 355 354 355 356 354 353 352 350 351 351 353 357 357 355 354 355 354 356 353 360 356 350 348 347
324 328 329 319 317 318 331 334 334 329 336 337 335 314 316 329 337 344 345 333 330 328 329 329 330 331 331 332 332 331 333 334 334 337 338 338 343 344 345 348 349 349 350 349 349 350 352 353 355 354 355 353 356 353 354 354 354 353 351 352 352 352 352 352 352 352 353 353 353 352 354 357 356 356 358 357 359 354 353 351 351 351 352 355 358 357 353 354 354 352 356 350 352 351 349 351 343
326 318 315 321 318 320 327 333 333 327 333 337 328 315 318 328 334 343 346 346 332 328 328 329 329 330 330 331 331 330 331 332 335 337 337 339 342 343 345 346 348 350 349 349 350 351 352 353 356 352 354 351 353 352 353 354 352 350 351 355 351 352 351 350 351 352 353 354 355 353 355 357 357 356 358 359 359 355 353 353 352 353 354 356 354 355 357 354 353 355 356 354 348 349 352 349 347
319 314 313 316 317 317 322 330 333 336 333 335 331 316 323 326 337 343 345 345 334 327 327 327 328 329 329 330 329 329 330 329 332 335 335 338 342 343 344 346 349 350 350 350 350 351 352 353 356 352 352 351 352 354 354 352 350 350 353 352 351 351 349 350 351 352 354 355 356 355 356 359 356 356 358 360 356 357 354 353 354 355 358 355 354 356 356 357 354 357 352 361 353 349 348 346 349
311 314 313 318 317 319 317 329 334 335 332 324 330 323 323 332 335 341 340 345 339 326 326 327 327 328 328 328 328 328 328 326 329 333 333 338 341 343 344 350 349 349 350 350 351 352 352 352 353 352 352 352 352 353 352 351 350 350 351 352 353 350 351 352 352 353 353 354 357 355 357 359 359 357 358 358 355 356 356 355 356 357 359 356 354 354 354 355 353 354 350 354 356 351 347 347 347
308 309 310 315 321 321 319 319 327 332 333 328 328 325 326 330 336 338 340 345 340 333 327 325 325 326 326 325 326 326 326 326 329 331 334 338 341 341 345 348 348 348 349 349 350 350 351 352 354 354 353 352 352 352 352 351 350 349 350 350 350 351 351 351 351 352 353 354 358 357 358 360 363 358 358 360 354 358 356 356 356 358 358 355 352 352 351 355 358 356 354 353 358 353 349 350 348
311 312 313 317 315 316 317 324 331 331 327 324 325 321 326 327 331 338 342 340 335 334 334 330 324 325 325 324 324 325 324 326 330 331 334 338 340 342 345 346 347 347 347 348 348 349 350 351 352 352 351 351 352 352 352 349 348 348 347 349 350 351 349 351 351 351 353 353 359 360 359 359 362 360 358 359 358 357 356 356 356 358 357 354 351 350 350 353 352 352 352 356 354 357 358 353 353
306 314 318 318 317 317 323 327 330 333 328 325 325 325 327 326 326 335 340 336 335 333 332 333 323 323 323 324 324 324 324 327 330 331 332 336 339 343 344 344 345 345 346 346 346 348 349 350 350 348 350 352 352 350 349 348 346 347 349 349 348 348 348 350 351 352 352 353 358 359 361 361 361 361 361 360 357 362 358 355 356 357 357 355 353 351 350 354 354 355 357 360 356 351 352 351 351
306 308 315 316 316 314 322 325 330 333 326 320 325 324 326 329 332 335 337 334 331 330 332 332 333 323 323 324 324 324 324 328 329 328 331 336 339 341 341 342 345 343 344 345 346 347 349 350 349 349 351 351 352 351 350 349 349 349 350 350 350 349 351 351 349 351 352 356 359 358 361 361 361 360 362 360 359 359 356 355 355 356 354 353 354 355 354 363 359 359 358 353 356 351 349 355 352
305 304 313 313 315 322 324 327 329 326 326 318 322 322 324 328 330 329 333 335 333 332 335 336 335 334 331 324 325 324 325 326 327 327 332 335 338 339 340 341 343 344 344 344 346 347 348 349 349 350 351 351 351 352 351 350 351 353 352 352 353 352 355 356 354 355 357 358 360 360 361 361 361 360 361 362 360 361 357 355 356 356 355 357 354 352 354 356 356 356 354 352 351 350 353 355 351
299 300 310 309 318 316 312 323 324 325 323 319 322 320 321 325 328 328 329 332 334 336 337 337 338 336 335 335 337 324 324 325 324 324 330 334 336 337 339 340 342 343 343 343 346 346 348 349 349 350 350 351 351 353 354 351 353 352 354 354 355 355 354 360 358 357 358 359 359 360 360 361 361 360 361 361 362 360 358 357 359 357 357 357 353 351 353 353 354 354 355 358 350 345 346 346 356
299 301 312 313 318 318 318 317 321 324 325 326 323 319 319 322 322 323 328 333 333 336 335 334 336 339 339 336 338 339 325 324 322 323 329 332 334 336 338 340 342 342 342 342 345 346 348 349 350 350 350 351 351 355 354 352 355 351 354 355 357 355 354 352 352 353 356 359 360 359 360 361 362 360 361 362 362 360 359 359 358 358 357 357 356 353 353 354 355 354 354 355 351 346 345 345 349
297 302 312 318 321 319 319 320 318 316 315 322 319 306 308 320 322 321 325 329 328 334 331 330 333 336 338 336 334 337 339 325 322 324 329 332 334 336 338 339 340 341 340 342 346 346 347 349 350 350 350 351 351 353 354 353 354 349 350 349 348 348 347 347 347 350 353 357 357 359 361 363 362 360 360 361 362 363 360 359 359 358 356 358 360 356 355 356 356 356 354 354 354 353 347 342 342
296 298 314 321 322 320 318 318 317 309 308 316 321 306 303 316 317 320 322 325 327 332 331 331 333 333 335 337 336 338 338 327 322 326 330 332 333 335 337 338 339 339 340 342 345 345 347 350 350 350 350 350 351 352 353 355 350 350 350 350 349 348 346 346 348 352 354 356 357 357 359 362 362 360 359 359 361 364 360 360 359 359 359 358 361 356 354 356 357 358 357 355 354 356 354 342 342
296 305 319 322 321 318 317 317 316 313 318 319 320 314 305 304 312 320 322 321 323 327 328 330 330 333 334 335 338 338 341 333 321 326 330 332 334 336 336 338 339 340 340 342 344 345 347 349 349 349 350 352 351 351 351 353 350 349 350 350 350 348 348 347 348 351 355 359 356 357 359 360 361 360 359 359 361 363 362 361 359 360 359 359 362 357 356 357 358 359 360 358 357 359 350 346 348
303 311 323 322 321 319 319 316 312 314 313 306 313 316 306 305 314 320 322 317 319 323 327 329 330 332 333 334 338 340 341 339 328 326 329 331 334 335 337 337 339 340 340 341 344 345 347 349 349 349 350 351 349 352 352 351 352 350 350 349 349 350 349 349 352 355 354 358 354 356 358 359 360 360 360 361 360 362 366 361 360 358 358 358 363 358 357 359 358 356 355 354 352 354 356 353 349
306 318 321 323 322 321 318 313 313 314 307 303 310 313 303 304 315 316 320 317 317 322 327 329 330 332 333 333 337 340 340 340 342 328 330 332 335 336 337 338 339 340 341 343 345 346 347 349 348 348 349 350 348 353 352 351 352 353 350 349 348 348 352 351 351 350 352 354 353 354 356 356 358 358 357 361 359 362 364 362 360 360 359 360 363 358 357 357 358 357 356 354 354 354 356 355 354
311 314 311 316 315 315 316 312 310 307 302 305 312 314 309 300 310 315 314 316 319 324 328 332 333 333 335 336 338 339 341 338 342 338 330 331 335 337 338 338 339 340 342 343 345 346 347 349 348 347 348 349 349 353 351 351 352 351 351 350 349 349 351 351 350 349 351 351 351 352 354 355 357 357 358 360 360 362 362 363 361 360 359 362 363 359 356 355 358 358 357 356 356 356 353 354 356
310 305 303 308 308 310 309 307 307 298 295 304 313 313 312 298 303 315 321 325 325 327 326 329 331 332 334 336 339 339 338 341 341 338 329 331 333 336 338 337 339 339 341 342 345 346 346 348 349 347 348 349 349 353 351 351 353 351 351 350 349 350 351 351 349 348 351 351 352 352 353 355 355 357 357 358 359 361 362 361 363 361 361 359 359 359 356 357 360 358 356 355 354 354 354 358 356
303 301 302 299 298 298 297 302 297 296 292 302 313 314 307 305 310 314 321 322 326 329 330 331 333 333 335 337 339 336 339 343 343 341 331 330 331 334 336 337 338 339 340 342 345 346 346 347 349 347 348 349 348 353 351 350 352 351 351 352 349 352 351 351 349 350 351 352 353 352 352 352 354 354 354 356 357 358 360 359 358 358 358 360 358 357 357 359 357 357 355 355 355 353 353 355 351
302 298 296 295 293 293 289 296 299 297 306 312 311 315 306 310 314 322 321 324 328 331 333 336 336 335 336 337 338 340 343 344 343 343 336 330 331 334 336 337 338 339 340 342 345 346 346 347 348 347 349 350 348 353 351 350 352 352 351 352 350 353 349 352 351 352 352 354 354 353 354 354 353 354 355 355 357 357 359 360 361 359 358 358 358 357 358 358 358 356 355 353 355 355 354 355 353
299 302 300 296 299 296 290 293 293 294 301 308 314 307 302 306 308 323 325 329 331 332 333 335 338 339 340 340 341 343 341 339 339 339 341 336 332 333 335 336 337 339 340 343 346 346 346 346 348 347 348 351 348 353 351 352 351 353 352 352 351 352 349 353 352 355 355 355 354 354 356 356 355 355 355 356 359 357 357 358 360 359 357 357 359 359 361 359 361 359 358 355 354 356 354 355 354
301 304 304 300 298 302 295 299 298 303 303 300 304 304 312 311 321 325 328 329 328 329 330 332 333 338 338 338 340 341 340 338 340 339 337 342 344 339 334 335 337 338 340 344 346 346 346 347 349 347 348 351 348 352 352 353 352 353 352 351 353 353 355 354 354 357 357 357 356 355 356 357 356 357 356 358 358 358 357 357 360 362 358 360 361 359 359 360 360 359 356 356 354 362 355 354 355
297 303 297 298 303 302 300 305 310 309 304 301 310 309 312 318 320 322 325 326 326 329 330 330 332 335 336 335 336 337 338 339 340 341 340 342 348 344 345 339 337 338 339 344 346 347 346 348 349 347 347 352 350 351 353 353 353 352 352 352 353 354 355 352 353 354 357 357 358 356 357 358 358 359 357 358 358 358 357 358 359 362 360 362 361 361 362 360 359 360 358 356 356 358 356 355 356
297 294 297 302 305 304 298 293 298 298 297 300 308 305 306 308 303 319 321 322 325 325 326 328 330 333 333 334 335 336 337 341 342 342 344 346 348 345 346 346 344 343 338 344 346 348 348 349 350 349 348 351 352 350 353 353 353 352 352 352 353 355 355 354 354 353 355 355 356 357 358 358 357 360 359 359 360 358 357 364 359 361 361 362 362 362 361 361 359 358 359 358 358 357 357 356 357
299 296 303 298 291 295 295 294 292 295 296 297 303 306 307 309 307 315 315 319 320 321 323 324 327 330 332 333 334 337 339 339 341 343 344 348 347 345 345 346 347 348 349 348 347 349 349 349 351 351 349 352 354 353 353 354 354 354 354 353 353 354 354 354 355 355 354 354 354 356 357 359 358 359 360 359 359 358 358 359 359 360 361 362 360 360 361 361 359 357 358 358 358 358 355 354 356
305 304 303 302 298 295 293 293 294 302 297 298 298 302 300 311 311 316 316 321 322 322 322 322 324 327 331 333 334 334 335 337 340 343 344 344 347 348 345 343 344 348 349 349 350 349 350 349 351 351 351 352 355 354 354 354 354 354 354 354 354 354 355 354 354 354 353 353 353 354 355 356 358 359 359 359 358 359 359 358 358 360 361 361 360 360 361 361 360 359 358 360 360 358 356 355 356
295 297 297 298 299 299 297 297 299 299 297 298 296 294 301 309 317 319 319 323 323 324 322 322 325 327 330 333 335 335 336 337 338 340 341 343 346 347 346 348 348 350 352 349 348 348 351 352 352 354 351 350 351 352 355 355 355 354 353 352 353 354 354 354 353 353 351 351 352 354 353 354 355 357 358 357 357 359 359 359 358 360 361 360 360 359 360 361 361 359 358 359 358 358 357 355 357
294 294 294 296 295 293 291 288 305 305 300 294 296 295 304 314 321 319 319 323 321 322 323 323 325 327 328 330 333 334 334 336 337 339 340 342 346 348 348 349 349 348 347 346 347 350 352 351 350 351 351 351 350 349 351 354 355 355 353 352 353 354 354 353 353 352 352 350 350 352 352 352 352 353 356 357 357 358 359 359 358 358 359 360 360 360 360 361 361 358 357 361 360 358 357 356 354
Wind_Speed
8 5 3 3 1 0 2 0 2 2 0 3 1 0 2 0 0 3 1 2 1 2 2 1 8 5 6 4 10 7 10 9 2 6 5 2 8 12 7 10 10 8 8 5 4 3 4 5 9 10 11 11 12 12 12 12 13 13 13 13 13 13 13 13 13 13 13 13 13 12 11 11 13 13 11 11 14 20 25 21 13 8 3 5 6 10 9 10 9 10 13 14 14 14 14 15 15
6 4 3 2 2 1 0 2 2 0 0 2 1 0 2 2 2 3 6 7 4 3 6 5 6 5 7 13 10 9 10 7 3 5 5 7 11 7 9 11 12 11 8 6 4 3 4 4 7 10 10 11 11 12 12 12 13 13 13 13 13 13 13 13 13 13 13 13 13 12 11 11 12 13 12 12 12 13 18 22 22 14 8 6 8 9 9 9 9 9 10 13 12 12 14 15 13
6 5 3 3 0 1 2 0 2 1 1 3 1 2 1 2 4 3 7 6 2 6 7 10 12 8 6 5 5 4 1 6 9 7 7 11 13 6 10 11 10 10 9 5 5 4 4 4 7 9 11 11 11 11 11 12 12 12 12 12 12 13 13 13 13 13 13 14 13 12 11 10 11 12 12 12 13 13 13 19 22 23 14 11 8 8 8 8 9 9 10 13 12 12 15 14 13
7 3 4 3 2 1 0 0 1 1 1 1 0 2 3 2 3 4 5 5 3 6 9 6 3 2 6 9 8 14 8 4 3 10 9 10 7 11 11 11 10 8 7 6 5 5 4 7 8 9 11 11 12 11 11 12 12 12 12 12 12 12 12 12 13 13 13 13 12 12 11 10 10 11 12 12 13 12 13 16 17 19 18 17 13 7 8 8 10 12 13 14 14 14 15 14 12
4 3 1 1 0 1 0 0 2 0 1 1 1 1 2 1 4 4 3 4 5 5 7 7 6 5 6 8 2 2 5 7 7 3 8 6 10 12 12 11 10 9 8 7 6 5 4 10 9 11 11 12 11 11 11 12 11 11 12 12 12 12 12 12 12 13 13 12 12 11 11 10 10 11 11 12 12 12 14 15 14 15 17 18 18 14 10 9 10 8 13 14 15 15 15 14 13
4 1 1 1 0 1 0 0 1 2 3 1 2 3 7 4 1 9 7 3 5 7 9 7 7 5 5 5 3 5 11 7 7 6 10 10 15 14 13 11 10 9 8 7 6 5 4 11 11 11 12 12 11 12 12 11 11 11 12 12 12 12 12 13 12 12 12 12 12 11 11 11 11 11 12 12 12 12 13 15 12 14 16 16 17 17 15 12 11 9 13 15 15 14 15 14 11
3 3 1 0 1 0 1 0 3 1 1 1 2 1 3 2 4 3 4 11 5 12 11 12 16 14 11 6 10 6 6 9 7 9 7 14 15 14 14 11 10 9 9 7 6 5 6 12 12 12 12 12 12 12 11 11 12 12 12 12 12 12 11 12 11 11 12 12 12 12 11 11 11 11 12 12 11 12 13 14 14 14 16 14 15 16 17 14 14 12 14 15 14 13 13 12 10
1 1 2 2 0 1 1 1 3 1 0 1 2 3 2 1 1 1 1 5 6 10 9 8 4 15 11 6 6 7 9 3 10 12 16 14 15 14 13 11 10 10 9 7 6 5 11 13 12 12 11 12 12 12 12 12 12 12 12 11 12 13 13 10 11 12 13 13 13 12 12 12 12 11 11 12 11 12 12 13 13 14 15 14 15 16 17 16 15 15 16 15 14 13 12 11 10
1 1 1 1 1 1 1 3 2 2 2 4 4 2 2 1 1 2 1 4 8 10 12 14 7 17 5 12 9 7 9 13 13 16 16 16 15 15 10 10 11 9 9 8 7 6 7 12 12 11 12 12 12 12 12 12 12 12 11 11 11 12 14 10 12 13 13 13 13 13 13 12 12 12 11 11 11 12 12 13 13 13 14 14 13 14 15 15 16 16 16 15 14 14 12 10 9
1 2 2 1 1 1 0 2 2 1 1 6 5 2 1 1 1 4 4 4 7 13 8 8 2 18 14 15 10 7 9 15 17 15 15 15 15 12 12 11 11 11 9 8 6 6 5 12 12 12 12 12 12 12 13 12 12 12 11 11 11 10 14 13 12 14 14 13 13 13 13 12 13 12 12 11 12 12 13 13 13 13 13 14 14 13 15 16 16 16 16 14 14 13 11 11 9
0 1 0 1 1 1 1 1 3 2 3 5 4 2 1 1 4 2 1 1 10 12 13 16 14 17 13 9 6 7 14 16 16 17 16 14 13 13 11 10 10 10 10 9 7 6 6 7 14 13 12 12 12 13 13 12 12 12 12 11 11 13 13 13 14 14 14 12 13 13 13 13 12 12 11 11 12 13 14 13 13 12 13 13 13 14 14 15 16 16 15 13 15 12 10 9 8
0 0 1 1 1 1 2 1 1 1 4 6 3 2 3 1 3 3 3 8 13 16 14 6 6 16 13 9 5 11 14 14 14 15 14 13 11 11 11 9 10 9 10 9 8 5 5 5 6 11 13 12 13 13 12 13 12 12 12 13 12 13 13 13 14 15 13 13 13 14 14 13 12 12 12 12 13 14 13 13 13 12 12 13 14 14 14 15 15 15 14 13 14 13 11 11 13
1 1 1 2 2 3 2 3 3 3 3 4 7 3 2 5 3 2 4 8 12 13 4 4 18 8 9 8 7 12 14 14 13 14 14 11 10 10 10 11 10 10 9 8 7 6 6 3 5 5 8 14 12 13 13 13 13 13 13 13 12 13 13 13 14 14 13 13 13 14 14 13 13 12 12 12 14 14 13 13 13 13 13 14 14 13 14 14 14 14 13 13 12 13 14 14 14
3 4 2 1 2 2 2 2 5 5 2 4 2 3 3 2 2 5 3 3 5 7 10 14 10 12 14 11 9 10 11 13 14 15 13 11 10 10 12 10 12 10 8 7 6 6 4 4 4 4 5 5 5 9 12 12 12 13 13 14 14 14 14 14 15 14 14 13 13 13 13 13 13 12 13 14 15 13 13 13 14 14 14 14 13 14 14 13 13 13 13 12 11 12 12 12 12
5 2 1 0 1 1 2 2 8 6 6 7 4 5 5 2 1 2 3 6 5 13 11 6 13 11 10 12 11 10 14 15 15 15 14 13 12 11 12 10 10 9 7 6 5 5 5 4 4 5 5 5 5 5 5 8 14 13 14 13 14 14 14 14 15 15 14 13 12 12 12 13 12 12 13 14 15 14 13 13 14 14 14 14 13 14 14 13 12 11 10 11 11 10 11 11 11
4 3 1 0 2 2 1 1 7 5 6 7 7 5 9 3 1 1 4 0 10 10 14 8 8 1 15 5 13 16 18 17 14 14 15 15 12 11 10 10 8 7 6 5 5 4 4 4 4 5 6 5 4 4 5 4 10 13 13 14 14 14 14 14 14 14 14 13 12 11 11 9 10 9 13 11 15 15 13 10 14 14 14 14 14 14 13 11 10 9 9 10 10 10 9 10 10
2 3 1 1 4 0 2 2 5 5 9 7 5 3 3 4 3 1 3 2 12 11 7 13 3 11 13 12 16 19 19 16 14 17 15 12 9 8 7 7 6 5 5 5 4 5 4 5 5 5 6 6 4 3 3 3 6 12 10 13 14 14 14 14 14 14 13 12 10 9 7 4 4 4 5 6 12 9 13 13 13 14 15 14 14 13 11 10 9 9 8 8 8 10 9 9 9
2 1 1 3 3 1 1 4 3 5 9 11 8 5 3 7 2 2 2 4 6 11 10 10 13 9 12 15 17 18 17 16 17 17 14 11 9 9 8 7 7 7 6 6 5 6 6 5 6 6 6 7 5 3 2 2 3 5 4 3 4 8 11 9 7 4 7 4 9 4 1 2 4 4 4 7 6 8 10 14 14 14 14 14 13 11 10 9 9 8 7 7 9 9 9 3 4
4 1 1 4 1 2 2 2 4 6 7 10 9 3 3 5 7 3 3 2 12 11 12 15 14 16 15 17 17 18 17 16 16 16 17 15 11 12 10 8 8 7 7 6 5 7 6 5 5 7 7 8 7 4 3 4 4 4 3 3 3 7 7 5 4 5 3 3 2 2 1 2 3 4 3 5 6 11 10 14 14 14 14 13 12 10 9 9 9 8 8 8 8 8 4 3 3
2 3 2 4 2 2 2 4 3 2 12 11 11 6 4 2 3 2 5 8 11 14 14 16 18 19 19 17 16 17 17 16 15 16 16 15 13 12 11 11 9 8 8 6 7 6 7 6 5 5 7 9 7 5 4 4 3 3 3 3 4 4 3 4 4 3 2 2 3 2 1 1 2 2 8 10 8 4 7 13 14 15 15 14 13 8 10 9 10 9 8 8 5 3 3 2 2
1 2 3 3 2 3 1 5 2 10 9 10 10 9 6 6 5 4 9 13 10 8 14 19 21 22 20 19 18 16 15 15 15 15 16 15 13 10 10 10 10 8 6 6 6 6 7 6 5 6 7 7 8 6 5 5 4 3 3 3 3 3 3 4 4 2 2 2 2 2 2 2 2 3 4 4 5 5 4 4 4 4 4 4 6 3 3 3 3 2 1 2 1 2 1 0 2
4 3 3 3 2 2 4 4 7 8 7 10 5 11 7 3 5 3 9 13 9 4 14 18 22 21 20 19 18 15 15 15 15 15 14 14 15 12 9 7 7 7 6 6 6 6 7 6 6 6 6 6 8 7 6 6 6 5 4 4 3 2 2 3 2 2 2 2 2 2 2 3 2 2 2 4 4 5 4 4 4 3 4 3 2 3 3 3 2 1 1 0 2 1 1 1 0
2 2 2 1 6 3 5 7 5 9 8 12 8 5 4 2 8 2 4 3 2 2 16 20 20 21 19 16 15 15 15 15 15 15 13 15 14 12 11 9 9 8 7 6 5 5 6 6 6 6 5 6 7 8 7 6 5 5 4 4 4 3 1 2 2 2 2 2 2 2 4 3 2 1 1 2 3 3 4 3 4 4 3 3 2 2 2 1 0 0 0 1 1 2 2 2 1
5 6 3 2 3 6 6 8 6 7 10 7 5 5 4 9 8 1 4 1 4 5 19 20 21 20 19 18 16 16 16 15 15 13 12 14 14 14 12 11 8 7 7 7 6 5 6 7 6 5 5 6 6 7 7 7 6 6 6 7 4 6 4 3 2 3 2 2 2 2 2 3 3 2 1 1 0 1 1 1 2 2 2 2 1 1 2 1 1 1 1 2 2 3 3 3 1
3 2 4 4 5 5 7 8 6 7 6 7 6 8 5 3 5 4 2 4 6 18 18 21 21 20 18 17 17 16 16 16 15 13 11 10 12 12 11 8 8 8 9 8 6 6 6 6 6 6 6 5 5 6 6 6 6 6 5 5 5 7 4 4 3 3 3 2 2 3 3 3 2 2 2 1 0 0 1 0 1 1 1 1 2 1 2 3 2 2 2 3 3 3 3 4 3
1 2 6 8 11 9 2 8 6 8 5 7 11 6 5 10 11 8 7 4 11 18 19 20 19 20 18 18 18 16 15 16 16 15 14 12 13 14 12 9 9 10 9 8 7 6 5 6 7 7 6 6 6 6 5 6 6 6 5 4 4 5 4 4 3 3 2 3 3 3 3 2 3 3 2 1 1 1 1 1 0 0 0 0 1 2 2 3 3 3 3 4 3 4 4 5 4
6 10 10 11 8 7 7 6 7 4 6 7 12 6 5 2 2 1 3 5 15 16 18 16 18 17 17 16 16 15 16 15 16 14 13 12 13 13 12 11 10 9 8 8 7 6 6 6 6 5 5 6 6 6 6 6 6 6 5 4 3 4 3 5 4 3 3 3 3 2 2 3 2 2 2 1 1 1 1 1 1 1 1 1 1 2 2 2 1 1 2 3 3 3 5 4 5
13 14 16 12 8 7 3 1 3 1 4 3 12 9 4 1 1 8 8 6 10 16 16 16 15 15 13 16 15 12 11 12 11 14 15 15 11 11 12 10 11 9 9 8 7 6 7 7 6 5 4 5 6 6 5 6 7 6 6 4 4 3 4 4 4 4 3 2 2 2 2 3 2 2 2 1 2 2 3 2 2 1 2 2 1 2 1 1 0 2 2 3 3 2 2 3 3
13 14 10 7 7 4 2 4 3 6 2 4 4 12 5 1 9 6 5 8 9 13 16 15 14 12 12 14 12 10 10 12 9 12 14 12 11 11 13 12 11 10 7 9 8 8 8 7 6 6 4 3 5 6 5 5 7 7 6 5 4 4 4 4 4 4 3 3 2 3 3 3 2 3 2 1 2 2 2 3 3 2 2 2 1 1 2 1 2 3 4 2 3 2 1 1 1
10 6 9 8 5 4 1 5 2 6 5 2 4 7 4 1 3 3 1 12 10 13 15 15 12 11 11 12 11 9 9 11 9 12 12 10 12 13 13 12 13 10 8 6 8 8 7 5 5 5 5 4 4 5 5 5 6 7 5 5 5 4 3 4 4 4 4 3 3 3 3 3 3 2 2 2 2 2 2 3 3 3 2 2 1 1 1 1 2 2 3 2 2 0 2 3 3
6 6 4 7 6 2 4 3 3 8 3 4 3 6 5 3 2 2 4 14 13 16 15 14 13 11 11 11 11 8 11 9 11 13 12 11 13 12 13 13 13 11 9 8 10 9 7 6 5 5 5 4 4 4 4 4 6 7 6 5 5 4 4 3 3 4 4 4 4 4 3 3 2 2 2 2 2 2 3 3 3 4 2 1 0 1 1 1 1 2 3 4 2 1 1 3 4
7 5 2 2 3 3 0 2 5 8 3 5 4 4 7 5 3 2 3 3 9 15 15 15 14 12 12 11 10 9 10 9 12 14 13 13 13 11 13 13 13 12 11 11 9 9 8 6 6 5 6 5 4 5 4 4 6 6 6 6 5 5 4 3 2 2 3 4 4 4 3 2 2 2 2 2 2 3 3 3 3 2 2 1 1 1 0 1 2 2 2 1 2 2 1 2 3
4 4 6 7 5 5 1 5 5 3 5 5 4 3 1 1 2 3 4 1 9 12 16 15 15 15 14 12 9 9 11 8 10 13 13 13 12 12 12 13 14 14 12 12 11 10 8 8 7 6 7 7 5 5 5 5 6 6 6 5 5 5 5 4 3 2 3 4 3 4 3 2 2 2 2 2 2 3 3 3 2 2 2 2 2 1 1 2 2 1 2 1 0 0 1 1 1
5 3 5 8 10 6 3 5 5 4 8 4 6 6 4 4 8 4 2 1 6 15 15 16 15 14 14 11 11 10 10 8 12 13 13 14 12 13 12 13 14 13 13 13 12 11 10 8 7 7 6 6 5 5 5 6 5 6 5 5 5 5 4 4 4 3 3 3 3 3 2 2 2 2 2 2 2 2 3 4 3 3 3 2 2 1 2 0 1 1 1 2 0 0 2 1 1
10 6 7 5 4 13 9 10 10 8 7 8 8 5 5 8 6 4 5 1 5 4 8 15 16 14 14 10 11 11 8 9 12 11 14 14 14 12 12 14 14 12 11 14 13 9 9 8 7 7 6 6 5 5 5 5 5 5 4 4 5 5 4 3 3 3 3 2 3 3 2 3 2 3 2 2 2 1 2 2 3 3 3 3 2 1 1 0 0 0 1 2 2 1 0 1 0
2 8 7 8 9 8 7 5 8 14 10 8 8 8 8 13 5 5 3 4 7 3 4 5 16 16 13 10 10 11 8 10 11 12 14 14 13 12 13 12 12 11 11 12 12 10 10 8 6 5 6 7 5 6 6 5 4 4 4 3 3 4 5 5 4 4 3 3 3 3 3 3 2 3 3 2 1 0 0 1 2 2 3 3 2 2 1 1 2 1 1 1 3 2 1 1 2
6 3 11 12 11 6 2 3 8 8 7 5 6 4 6 11 13 7 4 6 5 5 6 5 11 14 12 10 11 12 8 11 10 12 13 15 15 14 13 11 11 10 11 12 11 11 11 9 8 7 5 7 8 7 6 6 5 3 2 4 4 4 4 5 5 5 4 4 3 4 4 4 3 3 2 2 2 1 0 1 2 2 2 3 3 3 3 2 1 1 0 1 1 1 1 1 1
6 2 7 8 8 6 5 3 8 4 2 2 2 7 4 6 10 4 3 6 5 5 6 6 4 9 10 14 12 12 7 10 10 8 12 14 14 14 12 11 10 12 11 12 12 12 10 10 9 7 4 6 8 8 7 6 5 6 5 5 3 4 4 5 5 6 6 6 5 5 4 3 2 2 1 2 2 1 1 3 3 3 3 3 2 2 1 1 1 1 1 1 1 0 1 1 1
4 4 7 8 5 10 8 9 7 4 2 2 3 6 3 7 5 2 3 3 3 3 5 4 4 4 3 11 12 10 9 11 10 9 14 13 15 15 12 11 11 13 13 13 12 11 10 9 8 6 5 4 5 7 8 7 6 5 6 5 6 4 2 3 4 4 5 6 6 5 4 3 3 3 2 2 1 1 3 3 3 3 3 2 2 2 1 1 1 2 2 1 1 1 1 2 2
6 3 5 7 12 12 1 2 8 3 2 2 5 7 3 2 3 4 5 4 1 2 4 4 6 4 2 4 2 9 12 13 11 10 14 13 15 14 12 12 12 11 11 10 11 12 10 9 8 7 6 4 3 4 5 5 6 5 4 7 6 5 4 3 3 4 4 5 5 6 4 4 3 3 3 2 1 2 3 3 3 3 3 2 4 3 1 3 1 2 1 1 1 1 1 2 1
5 6 9 6 14 10 13 7 5 4 5 10 7 5 3 6 5 6 2 3 3 3 4 2 3 2 1 0 0 0 13 13 12 10 13 13 14 14 14 13 12 11 11 11 11 11 8 11 10 9 7 6 4 3 4 3 4 3 4 4 4 4 4 3 4 4 4 4 3 4 5 5 5 4 4 3 3 3 3 3 3 4 3 3 2 3 3 4 3 2 2 2 2 1 2 1 1
5 5 11 14 12 10 13 17 12 3 2 5 11 2 1 3 4 7 0 2 4 2 1 1 0 0 3 1 1 2 1 12 12 11 14 14 13 13 13 14 13 11 11 11 12 11 10 9 10 9 7 6 6 4 4 3 4 5 5 6 5 3 4 4 5 6 5 5 5 2 3 5 5 4 4 3 3 2 3 3 3 3 3 3 4 3 3 1 2 1 2 2 2 2 1 1 1
4 6 13 16 17 16 18 16 9 4 6 9 6 3 1 2 4 4 3 2 2 1 2 3 2 1 2 1 0 0 1 6 8 10 14 14 13 14 14 13 13 13 11 10 10 10 11 10 10 10 8 7 6 5 5 3 4 5 6 6 6 6 6 3 2 3 5 4 3 3 3 3 4 5 4 3 3 3 3 3 3 3 3 3 2 3 2 2 2 3 1 1 3 2 1 2 3
6 5 12 17 19 20 19 18 9 5 1 5 6 1 5 2 1 7 4 4 2 2 5 5 4 3 5 3 0 1 0 2 8 10 15 14 14 16 15 14 13 13 12 11 10 10 11 11 10 9 8 8 7 6 5 5 6 6 6 5 5 5 6 6 5 4 3 3 4 4 3 3 3 3 4 3 3 3 3 3 3 3 3 3 2 3 3 3 2 3 2 2 2 2 3 3 1
6 2 22 19 23 22 18 12 6 4 8 4 6 4 5 0 1 8 8 7 7 7 7 7 6 6 7 4 1 3 1 1 4 11 14 15 15 15 15 13 12 13 12 11 10 10 10 10 10 9 9 8 7 6 6 5 6 7 7 6 5 5 5 5 4 3 3 4 4 3 4 3 3 3 3 4 4 3 3 3 3 3 3 3 2 2 2 2 3 4 3 2 3 1 1 2 2
7 8 10 12 11 10 11 8 8 7 4 5 9 7 5 1 1 8 6 5 10 10 10 8 9 9 9 6 2 3 1 3 1 7 16 14 15 15 14 14 12 12 12 11 10 10 10 9 10 10 9 8 6 6 7 6 6 6 6 6 7 5 3 3 4 4 3 4 5 4 4 4 4 3 3 3 4 3 3 3 4 4 4 3 2 3 2 2 3 4 3 3 1 0 0 1 1
2 9 9 13 11 7 4 5 5 5 1 8 10 9 5 3 6 8 12 8 10 8 5 7 9 8 7 7 4 2 0 2 2 3 13 15 14 15 15 15 14 12 10 11 10 11 10 10 10 10 9 7 6 7 7 7 6 6 6 7 7 6 5 5 5 4 3 3 5 4 4 5 4 4 4 3 4 4 3 3 3 4 3 3 3 3 3 3 3 3 3 1 0 0 1 2 2
3 2 4 8 6 5 3 3 2 4 5 6 11 10 2 4 4 7 8 1 8 10 12 12 12 12 10 8 3 2 1 3 2 3 10 14 11 13 14 14 14 13 11 11 10 10 10 9 9 10 7 7 6 6 7 7 6 6 5 6 7 6 6 6 7 7 6 6 5 5 4 4 4 4 3 3 4 4 4 3 3 3 3 3 3 3 3 3 3 2 1 0 1 2 1 1 1
3 4 6 9 1 2 2 2 1 5 6 5 15 10 2 3 2 2 8 5 2 5 6 10 11 13 11 9 6 4 1 2 1 1 9 11 13 14 13 13 13 12 12 12 12 11 11 10 10 10 9 7 7 6 7 7 6 6 5 5 5 5 6 7 7 6 6 6 5 5 4 5 4 4 4 4 3 4 4 4 3 4 3 3 3 3 3 3 2 2 2 2 1 2 2 1 2
3 2 4 5 5 3 4 6 3 1 4 2 10 7 4 1 1 7 2 1 4 5 2 4 6 8 10 7 4 2 2 2 2 3 4 10 11 13 14 14 13 13 13 13 13 12 11 10 10 11 10 8 7 7 8 7 6 6 5 4 4 4 5 6 6 7 6 6 6 6 6 6 6 6 5 5 5 4 4 4 4 4 3 3 3 4 3 3 3 3 3 3 3 3 1 1 3
3 6 7 7 7 6 3 3 6 5 4 1 3 5 2 4 1 8 8 9 10 10 9 7 6 6 4 5 5 4 5 7 9 9 10 2 10 11 11 13 13 13 14 14 13 12 12 11 11 12 9 8 8 9 7 7 7 6 5 5 4 3 6 6 6 6 6 6 6 6 6 6 6 5 5 5 4 4 4 3 3 4 4 4 3 3 3 2 2 3 3 4 3 2 2 2 3
1 2 4 4 1 4 6 6 5 6 6 5 5 2 2 1 4 6 3 8 10 9 7 4 2 3 5 3 3 5 6 7 7 7 8 12 6 4 9 10 12 12 13 13 13 12 12 12 12 13 12 10 10 9 8 8 8 6 5 6 5 5 5 5 5 5 6 6 6 7 7 6 6 5 5 4 5 5 5 4 4 4 4 4 4 4 3 3 3 4 4 3 3 2 3 3 4
2 1 2 3 1 0 2 1 8 12 7 4 2 4 4 4 5 7 4 9 8 7 7 4 2 3 6 6 4 7 7 6 7 6 1 7 7 3 3 5 9 11 12 13 13 14 14 13 12 12 11 9 10 9 9 9 8 7 7 7 5 5 6 6 6 6 7 6 6 6 7 6 6 5 6 5 5 5 5 5 5 5 4 4 4 3 3 3 3 3 5 3 4 3 3 4 4
3 3 3 4 1 2 2 4 3 3 5 2 1 3 6 5 3 3 3 8 7 9 9 8 8 4 9 8 5 6 8 8 5 5 4 2 2 3 4 5 5 6 7 13 16 15 14 14 15 14 12 12 11 11 10 9 9 8 8 8 7 6 6 6 6 7 6 6 5 6 5 6 7 7 7 6 6 6 6 6 6 5 4 4 4 4 3 3 3 3 3 3 3 3 3 3 3
6 4 3 4 2 0 2 3 2 3 3 2 1 2 2 2 2 4 5 7 9 8 8 7 7 8 9 10 10 9 7 7 6 4 2 0 3 3 3 4 5 7 6 5 10 13 13 13 14 15 16 15 14 11 10 8 8 7 7 8 8 6 5 6 5 6 5 6 6 6 6 7 6 6 7 7 7 7 7 7 6 5 5 5 4 4 4 3 3 4 3 3 2 2 3 3 3
1 3 6 0 4 1 1 3 3 6 5 6 2 5 2 2 4 3 3 7 10 9 8 8 8 7 6 8 9 9 9 7 5 5 6 5 3 1 1 3 5 6 7 7 6 6 11 11 12 12 12 11 10 12 11 10 9 7 6 5 6 5 5 6 6 6 7 7 7 6 6 6 8 6 6 7 7 8 8 8 6 6 6 5 5 5 4 4 4 4 4 4 3 3 3 3 4
3 3 0 1 0 3 3 1 2 6 8 5 7 2 2 2 1 1 3 8 8 7 6 7 8 8 8 7 8 9 8 7 7 5 8 7 5 5 5 7 4 5 6 6 8 6 5 6 8 8 10 8 7 4 7 8 8 7 6 7 7 6 6 6 6 6 7 7 6 6 6 6 5 6 6 6 7 8 8 8 8 7 7 6 6 6 5 4 5 5 5 4 4 3 4 4 3
3 4 2 5 2 3 1 5 2 3 7 7 8 3 1 2 4 6 4 2 11 9 8 9 8 8 8 8 9 9 8 8 8 7 7 6 7 8 8 6 3 5 7 7 5 8 7 6 7 9 10 11 12 9 6 6 6 8 9 8 7 6 6 5 6 6 6 6 7 7 7 6 6 6 6 7 8 7 8 9 8 8 7 7 7 6 6 5 6 5 5 4 4 5 5 4 3
Wind_Direction
147 148 145 156 119 30 109 324 54 327 39 48 18 356 226 315 279 122 131 54 164 251 190 42 128 133 182 170 128 102 31 141 336 153 197 161 133 141 146 134 138 138 144 151 155 178 151 152 148 142 130 129 126 122 118 115 114 112 110 108 107 107 107 108 109 111 113 113 114 114 112 108 110 112 114 116 116 124 136 130 140 138 128 95 98 106 97 89 83 84 87 94 96 101 98 93 86
142 141 151 135 135 153 355 215 99 106 74 96 309 135 232 116 45 172 178 193 187 140 129 188 178 176 123 119 139 102 26 16 315 122 66 118 124 132 144 142 144 143 145 148 149 149 136 154 152 139 134 133 128 122 118 115 112 110 109 108 108 109 110 110 112 112 111 112 116 116 115 115 112 114 117 117 113 111 120 127 129 129 135 126 114 102 100 104 96 93 94 98 96 94 95 93 90
136 157 145 137 308 223 313 207 81 63 49 61 224 202 79 152 194 179 214 198 125 95 132 112 116 105 132 135 73 71 212 38 87 86 101 136 124 168 150 145 142 140 141 144 145 135 138 156 143 140 141 136 131 124 120 116 111 108 110 111 112 111 110 110 111 111 113 116 118 118 119 116 115 115 117 115 110 112 110 114 123 135 148 132 110 99 112 113 120 120 111 111 110 107 104 96 94
145 169 134 154 86 162 44 18 84 84 76 206 216 188 188 187 228 217 217 246 339 150 155 133 76 303 113 77 102 84 81 87 10 133 129 160 153 147 147 145 138 134 137 142 140 136 141 160 147 146 146 139 132 125 121 117 113 113 114 114 114 112 111 111 111 114 113 117 118 116 117 115 110 111 111 108 109 108 109 105 117 127 134 131 120 120 120 127 124 123 129 123 118 114 108 103 100
138 155 161 225 106 12 114 116 127 108 107 232 180 225 153 199 216 225 257 183 216 163 113 119 92 56 94 110 145 113 147 101 99 49 123 124 131 141 143 139 137 137 143 142 134 137 155 154 152 153 147 138 131 127 123 117 118 118 118 117 115 114 113 115 116 115 116 118 116 115 113 112 112 111 109 109 109 111 107 105 116 121 121 127 135 140 144 131 122 133 124 121 119 115 110 107 107
70 75 255 171 70 247 35 11 142 183 207 151 296 7 54 67 328 283 301 304 159 141 108 82 114 116 56 36 29 93 134 134 138 109 128 139 143 142 141 139 138 141 142 135 136 137 148 156 158 153 142 135 134 131 127 125 123 123 119 117 116 112 112 112 113 116 117 116 115 115 114 118 118 114 110 110 111 111 112 115 125 121 125 124 129 136 138 134 133 142 121 117 117 113 108 105 103
136 79 349 26 244 73 99 88 296 273 345 131 78 174 218 186 176 280 341 94 63 88 94 103 113 113 84 103 82 82 86 109 127 137 134 138 139 140 139 140 141 139 137 137 135 138 155 161 158 148 141 140 137 134 130 130 128 124 120 116 112 110 104 108 115 121 118 118 120 119 117 114 110 109 112 112 113 113 113 116 116 125 121 125 125 132 134 139 135 132 122 117 114 107 103 101 103
346 72 187 133 171 58 13 220 249 167 290 73 123 42 306 88 233 11 298 109 135 105 115 120 99 91 67 37 99 106 112 91 111 121 128 138 139 138 143 144 136 135 135 135 136 148 159 156 153 147 145 143 140 136 131 130 125 123 120 115 111 110 105 118 131 129 123 122 122 122 124 118 117 116 113 113 112 113 113 111 116 113 121 124 130 132 132 137 135 134 124 118 114 109 103 102 99
193 171 232 75 83 98 327 272 278 157 202 116 85 160 348 135 297 127 29 335 102 100 104 114 143 89 128 94 77 97 90 109 117 125 133 136 139 146 145 137 135 134 134 135 143 156 146 153 150 149 149 146 141 135 132 128 124 119 113 109 110 117 124 141 139 126 125 124 124 124 121 121 118 116 115 115 114 115 112 112 116 116 116 123 125 127 129 127 127 124 122 118 118 113 112 115 114
218 198 269 138 153 249 140 290 293 342 160 97 151 177 191 347 49 29 28 312 122 105 98 73 115 101 115 98 106 109 121 125 129 130 135 140 145 145 134 132 133 134 133 138 146 142 146 153 153 154 151 146 139 135 128 126 120 113 109 110 115 126 134 142 134 126 125 123 117 110 113 116 117 117 118 120 120 117 115 113 117 119 121 124 125 128 129 126 125 124 121 121 118 109 112 117 120
185 17 26 85 69 281 196 205 247 246 85 135 72 59 231 202 118 27 57 58 110 103 100 109 84 111 103 93 74 106 123 133 137 138 144 146 143 136 129 124 127 134 139 143 141 143 155 151 154 153 148 144 138 134 129 124 117 113 112 112 131 139 136 131 128 125 119 119 119 119 119 119 119 118 118 118 117 114 113 118 118 120 124 126 127 130 131 127 125 122 121 122 117 116 127 126 127
16 219 192 95 175 196 258 252 218 176 113 128 100 181 232 190 79 60 318 129 114 118 135 133 130 117 91 110 124 134 134 139 138 141 142 137 140 130 124 124 125 133 137 139 142 141 144 158 147 152 148 142 139 132 123 117 116 119 124 133 141 137 135 131 126 116 121 126 124 126 125 121 118 116 116 117 114 112 111 114 117 120 126 129 130 133 133 130 126 124 123 123 118 125 122 119 119
174 161 121 120 209 162 235 253 229 153 111 117 163 203 274 106 60 22 332 126 127 130 115 111 130 114 109 118 137 135 145 148 145 141 137 142 130 122 123 125 128 130 134 139 138 142 147 140 145 141 146 142 135 126 122 122 126 134 137 137 142 137 134 130 121 122 126 131 131 130 126 124 123 122 123 118 110 112 115 116 121 125 128 131 131 132 131 128 126 123 121 119 112 112 106 106 114
181 192 136 263 133 220 215 194 146 144 101 122 213 151 59 53 208 169 214 140 136 110 121 131 120 113 100 117 142 153 149 150 140 137 143 134 122 123 125 128 132 130 138 140 140 145 142 133 120 126 128 124 120 122 123 131 136 137 139 142 140 138 135 132 130 134 134 132 129 129 128 126 123 121 117 113 113 115 114 119 123 126 128 132 134 133 134 131 127 123 120 115 112 113 108 104 107
201 184 85 121 253 232 200 217 168 154 122 140 208 152 88 304 99 292 229 116 97 122 122 95 131 109 173 160 158 163 152 151 146 143 130 123 123 124 128 129 127 131 133 141 143 146 144 128 114 102 102 91 86 103 108 144 141 140 144 138 137 135 135 134 132 133 133 131 133 134 130 123 120 119 117 115 110 109 113 119 123 126 129 131 132 134 135 132 126 120 114 114 116 114 110 106 106
167 120 87 63 274 239 338 175 155 119 126 145 195 119 122 233 108 345 221 190 132 135 141 135 213 103 151 154 148 147 147 150 149 134 124 124 125 126 127 125 128 131 135 138 150 153 142 128 118 110 107 105 104 100 130 150 141 143 144 138 138 137 136 136 135 134 132 131 132 133 130 121 119 119 114 112 112 110 114 121 126 127 128 130 133 136 134 127 121 119 120 123 122 120 113 108 111
184 90 327 45 301 95 269 67 140 137 126 141 146 114 151 144 279 233 283 262 149 150 140 150 147 113 139 143 142 138 146 149 140 128 126 127 131 130 124 128 132 140 142 155 159 163 147 137 131 121 118 119 113 110 115 143 145 137 133 134 138 138 139 139 138 134 132 128 126 125 109 65 72 68 84 105 107 118 127 128 127 125 125 127 130 129 125 126 127 127 130 132 128 125 123 114 110
99 170 202 296 221 9 188 178 165 124 127 139 137 159 137 117 205 209 177 8 126 129 127 113 113 115 122 130 133 142 146 144 139 134 134 132 136 136 140 144 148 156 160 166 171 158 148 152 145 133 128 124 127 126 105 80 99 84 95 118 123 132 128 125 121 107 109 114 120 102 89 95 83 94 89 104 121 118 123 129 128 127 125 127 128 128 130 131 131 135 140 140 134 133 116 70 98
133 173 124 252 175 190 192 102 194 142 129 136 141 191 155 143 159 235 126 89 129 127 125 131 117 117 126 134 142 146 147 146 141 140 141 141 146 149 149 149 155 156 170 170 159 156 158 154 151 143 135 134 138 142 110 102 90 93 90 75 88 113 123 120 85 95 94 99 100 92 67 63 88 95 105 126 134 131 126 127 129 129 132 132 133 137 140 141 143 147 146 140 139 119 84 93 75
217 108 232 253 158 121 163 141 174 123 132 140 145 168 87 231 201 223 143 129 135 137 142 132 131 136 143 142 145 148 150 146 143 145 144 146 150 152 151 156 159 169 169 165 158 157 157 159 157 145 144 140 143 137 118 114 102 94 89 68 86 89 96 96 89 92 97 98 99 93 65 48 74 100 120 104 96 91 119 125 130 130 130 133 135 139 144 147 144 144 145 136 95 81 117 109 103
187 91 193 242 162 108 151 117 117 131 139 139 134 133 158 233 197 142 139 117 137 143 151 144 144 146 145 148 148 151 148 146 145 148 149 149 150 153 157 160 160 160 159 148 155 162 161 157 147 148 146 145 141 142 139 135 118 101 94 98 95 84 93 92 93 91 105 102 99 97 81 65 27 41 74 79 83 88 80 65 71 55 63 91 95 78 71 90 70 53 55 61 48 59 66 75 105
117 192 268 269 133 113 132 141 147 131 124 117 140 147 179 192 47 95 139 137 155 194 149 142 143 145 146 148 149 146 147 147 150 153 156 151 151 152 152 143 142 144 147 156 166 162 159 149 145 149 146 145 144 143 142 143 133 133 125 131 103 80 81 97 98 106 124 119 111 117 99 87 44 29 39 73 89 92 93 101 98 93 93 94 83 77 70 71 58 35 44 28 355 9 9 347 329
130 294 252 248 169 119 161 147 153 132 132 136 161 154 133 85 122 238 96 132 181 210 141 141 140 143 145 143 144 145 148 152 155 161 155 148 150 151 151 150 152 153 157 161 160 164 154 146 145 148 147 139 137 139 141 133 143 140 132 136 135 136 119 128 143 148 144 132 123 127 118 114 89 69 45 41 79 82 99 108 105 92 104 110 99 105 104 96 33 33 22 341 335 326 301 305 309
123 209 204 288 92 153 167 147 135 134 138 136 137 155 116 140 129 167 110 234 256 161 139 137 138 140 145 145 149 150 153 158 162 163 152 152 152 153 154 154 153 142 145 155 162 162 160 155 154 149 150 143 136 138 134 135 138 140 152 148 147 165 153 161 160 151 129 110 128 126 113 115 131 134 125 54 5 45 118 134 117 106 97 124 108 111 150 232 228 238 270 302 286 280 281 278 256
129 93 205 87 85 118 155 137 135 129 115 129 123 117 139 80 118 117 136 272 150 136 139 138 141 144 148 147 150 155 158 161 164 163 153 153 153 150 153 148 147 150 151 157 158 159 164 159 161 157 156 146 139 135 136 131 136 138 135 142 159 164 161 162 160 140 133 127 109 126 130 124 119 137 141 167 18 289 302 18 126 144 130 161 154 210 187 192 213 207 219 235 241 253 253 251 225
197 127 137 97 53 15 21 145 139 136 135 142 106 94 84 107 90 24 313 310 130 134 138 141 142 147 150 151 155 160 163 168 165 165 160 158 156 155 157 152 154 160 160 155 155 161 157 160 171 168 161 146 142 136 135 132 134 125 135 156 169 148 163 154 143 145 150 135 126 126 133 132 153 167 159 161 136 265 302 318 360 315 167 199 179 241 208 173 198 199 218 232 236 240 242 228 188
125 111 78 79 57 70 357 318 133 190 137 163 121 117 106 77 93 160 297 269 131 135 141 142 143 147 149 152 158 163 168 170 163 158 155 158 160 159 156 155 159 160 154 158 160 158 159 166 176 176 158 150 140 142 145 133 129 129 144 155 134 153 148 136 136 143 146 144 145 137 132 158 160 173 167 158 148 224 253 258 273 307 300 270 244 237 211 191 187 212 233 235 208 200 213 200 168
121 103 75 71 78 75 316 244 327 218 139 185 123 108 93 71 100 150 184 172 132 139 143 144 145 148 151 151 158 164 165 162 157 154 158 160 162 157 158 160 162 158 162 167 164 156 160 174 175 181 169 153 148 141 148 130 129 137 142 136 139 149 141 134 137 146 150 151 147 140 148 165 172 194 194 201 190 168 179 199 216 184 224 238 243 211 222 265 223 255 283 293 272 211 189 168 157
123 113 86 72 62 73 296 157 228 303 334 114 107 107 107 39 124 131 139 141 136 146 144 147 149 150 149 153 156 164 160 168 156 159 160 162 159 157 160 164 159 160 170 165 163 161 169 173 174 179 170 174 148 146 148 134 136 138 140 138 144 146 146 138 141 153 147 151 147 155 159 171 189 190 221 251 184 175 158 162 185 191 214 239 281 225 224 278 345 356 339 324 320 329 345 301 164
78 50 118 78 46 17 31 303 83 76 289 42 3 113 212 234 102 120 84 148 155 145 150 150 150 153 152 154 162 166 167 167 161 162 159 155 154 158 160 163 157 158 159 161 160 169 170 172 170 171 167 181 157 138 151 138 132 132 135 136 141 137 145 144 148 140 143 153 158 168 165 184 173 205 215 254 189 177 160 166 177 199 214 241 287 241 215 342 345 358 324 12 353 127 245 196 168
108 118 74 113 103 233 172 208 142 135 211 243 9 119 198 246 101 77 55 155 159 153 153 152 153 155 157 160 170 172 175 168 165 162 161 151 153 157 157 156 155 154 152 158 169 173 173 168 169 164 166 175 166 153 155 137 123 125 129 130 133 139 138 140 139 133 139 157 167 176 174 184 170 206 223 203 207 179 167 176 182 196 200 186 244 250 150 352 8 325 331 11 336 17 178 205 174
136 96 45 74 143 239 270 195 188 149 221 228 96 129 172 200 160 70 46 72 165 155 156 157 160 158 162 172 173 179 177 170 164 165 157 152 154 156 152 153 151 152 158 162 165 166 177 177 177 166 157 175 170 162 149 135 129 128 130 133 132 135 132 128 127 135 147 157 173 175 177 175 171 200 218 203 180 184 178 187 200 192 178 153 186 225 68 295 303 313 329 29 32 355 4 198 171
262 131 156 152 157 199 83 209 203 233 168 188 231 148 37 90 185 103 47 11 143 170 159 163 163 163 166 175 174 182 174 172 161 166 156 153 157 155 153 150 153 157 158 160 162 170 174 180 181 170 169 179 167 160 138 129 128 123 122 125 131 132 136 134 134 151 159 168 168 168 168 176 163 207 219 200 160 173 188 194 205 193 167 167 181 176 239 253 237 263 322 343 116 214 74 116 125
206 174 154 176 164 161 205 121 197 201 168 153 265 155 211 132 178 132 194 175 148 176 167 165 164 165 170 169 177 179 176 159 165 166 157 155 158 155 152 152 152 157 156 157 166 171 172 175 176 175 172 169 160 160 146 134 128 118 118 121 136 136 132 127 145 162 175 187 163 169 169 182 173 211 211 179 156 173 173 183 188 179 166 163 144 143 213 234 292 198 272 310 279 55 47 75 220
176 169 133 156 164 177 169 166 189 167 194 162 188 143 168 148 162 175 183 144 89 161 168 165 162 164 171 161 173 178 166 160 162 161 154 154 156 151 150 151 152 155 156 156 164 165 165 168 167 178 168 164 164 145 135 116 109 99 104 122 139 133 117 126 148 170 188 188 179 168 176 194 190 200 188 192 163 167 126 167 153 167 160 150 138 146 164 241 358 90 208 298 348 43 143 86 277
167 158 145 145 160 204 213 185 142 168 160 178 176 168 159 168 182 159 140 114 109 139 106 155 160 164 169 160 166 176 155 161 163 153 152 154 154 150 150 153 153 157 152 151 154 154 157 159 160 165 160 153 147 137 131 125 118 127 127 120 118 125 134 146 168 176 176 189 191 171 183 193 202 190 183 167 162 127 101 177 159 145 146 137 142 152 211 218 211 246 315 328 345 337 352 346 310
276 167 142 170 175 200 77 133 159 162 135 168 168 137 157 160 179 193 136 121 89 74 73 93 161 162 165 158 163 167 155 162 174 151 146 155 154 151 151 150 151 148 147 145 148 153 154 156 157 165 160 145 141 143 145 144 143 139 138 162 152 160 160 156 164 172 177 187 192 178 185 190 184 186 173 159 164 203 171 210 155 148 147 149 163 199 210 226 246 219 186 17 27 10 327 326 268
236 224 144 170 169 173 158 109 151 132 102 181 110 136 148 159 166 140 125 128 125 119 92 72 105 172 162 160 165 157 164 158 173 143 141 153 153 153 149 150 146 144 148 145 152 155 152 154 158 161 153 145 140 147 152 158 163 172 163 167 152 157 164 164 169 177 170 180 184 177 187 177 172 187 182 175 167 163 196 202 157 171 166 173 199 196 207 236 274 282 105 25 22 116 273 283 337
249 205 185 148 105 80 47 95 86 357 65 144 122 123 155 165 154 360 353 122 131 101 109 102 92 88 88 163 165 151 149 165 171 152 142 155 152 152 152 151 156 153 149 149 151 148 151 153 155 159 154 152 151 144 147 164 171 169 157 156 156 151 167 170 167 166 165 168 169 169 173 171 168 181 196 189 172 213 193 177 165 174 181 177 159 196 276 235 226 213 182 155 299 354 289 293 276
243 189 152 182 145 134 206 142 87 342 76 57 147 134 151 304 76 97 328 321 42 92 90 91 62 54 58 86 190 157 153 166 175 150 148 155 155 154 153 156 156 152 147 143 151 153 154 154 157 159 161 155 168 160 156 160 163 169 152 144 148 144 160 156 141 145 156 153 166 161 169 169 174 179 189 194 212 192 185 159 164 171 189 188 167 184 211 207 234 214 182 152 121 333 333 297 226
240 189 180 155 167 174 145 166 126 122 46 148 125 111 154 181 156 173 285 28 353 16 54 32 65 51 252 54 128 52 166 168 174 149 148 155 158 157 158 158 154 155 153 153 156 158 160 160 161 162 164 164 176 177 177 156 146 119 99 94 104 84 76 100 109 123 154 169 160 163 174 167 173 181 187 191 196 190 179 157 165 183 173 189 161 174 184 200 211 205 181 176 167 162 273 289 297
271 215 184 177 154 139 96 132 131 104 103 251 151 56 299 165 146 154 127 123 184 335 92 256 332 8 338 38 328 41 261 173 170 152 153 155 156 155 155 154 157 158 158 160 159 159 155 161 160 160 164 166 174 188 188 148 161 148 128 133 138 136 141 147 163 162 164 167 185 184 161 166 172 178 184 183 192 177 178 174 171 176 184 179 181 185 194 207 246 250 232 189 224 239 202 316 289
251 262 180 162 143 137 137 140 133 120 175 206 226 123 163 120 168 168 174 120 158 93 306 244 227 273 287 293 36 89 46 184 172 149 149 153 157 155 158 160 158 161 162 156 158 155 156 160 161 162 166 172 178 188 183 151 155 161 160 163 161 167 165 198 169 157 162 172 151 182 194 177 173 175 182 179 188 182 174 174 173 172 177 186 187 160 186 222 239 240 231 185 236 264 148 224 220
248 252 148 134 140 144 160 152 151 158 53 88 192 239 129 164 111 135 165 170 230 236 206 252 234 238 255 257 20 254 125 176 178 156 154 158 159 158 163 161 161 163 159 154 156 155 157 161 163 166 166 175 184 184 171 163 160 166 164 166 166 165 174 182 177 182 166 155 155 181 185 191 186 183 178 178 184 182 167 170 169 163 170 189 184 184 204 230 275 277 240 212 239 224 174 154 161
220 252 145 150 155 161 154 130 120 109 129 174 214 219 74 157 90 134 144 175 220 229 210 208 224 219 240 242 180 241 137 342 193 160 160 159 162 162 159 164 163 159 159 156 158 160 156 161 163 164 169 176 183 183 169 164 160 166 166 166 168 186 175 178 170 173 161 160 166 181 180 191 192 196 182 177 185 182 173 167 172 172 178 194 198 197 244 239 240 246 242 211 193 211 120 157 122
231 119 132 126 125 135 130 125 121 121 75 200 213 198 112 207 165 145 170 191 210 211 200 196 210 207 225 230 201 231 67 291 347 188 160 163 163 164 164 159 160 163 163 157 155 155 154 159 164 166 174 178 176 182 167 162 159 156 163 173 174 183 177 169 159 177 175 165 179 187 185 185 191 187 186 180 178 182 173 171 171 183 192 195 202 200 228 256 256 224 215 205 159 360 29 142 113
151 151 139 139 132 139 108 69 90 56 141 225 196 194 144 166 216 188 173 206 203 187 197 186 194 199 222 229 201 188 95 320 293 156 173 161 164 163 160 162 164 161 160 158 155 159 156 160 166 169 176 176 173 177 168 166 164 157 168 174 179 179 181 173 170 188 172 167 178 190 188 191 187 192 177 190 181 179 181 181 182 190 194 196 203 200 218 222 225 209 234 256 70 200 284 3 355
137 143 118 129 111 66 38 55 71 108 251 229 183 189 180 122 230 211 216 87 178 182 186 186 180 185 197 212 189 165 81 296 321 131 177 158 156 163 163 162 163 164 161 161 160 160 161 162 165 168 174 174 175 174 173 171 165 168 164 171 180 181 179 178 181 184 184 184 182 191 190 175 193 188 184 178 185 185 180 193 195 193 201 202 210 205 218 208 218 200 216 285 287 287 305 16 10
91 103 111 136 203 85 127 73 101 207 216 219 169 164 59 11 283 208 178 242 174 176 185 189 180 175 184 191 180 167 60 309 308 125 167 170 159 163 167 165 163 165 166 165 163 163 165 166 166 167 178 176 175 172 178 176 171 176 174 181 182 174 182 178 180 181 182 183 183 181 174 192 190 189 201 191 201 190 182 190 202 199 213 210 215 215 216 200 198 206 202 212 237 253 240 273 308
126 130 138 111 145 178 151 183 179 257 335 71 141 106 65 295 359 13 109 122 80 69 98 151 167 178 175 171 151 95 80 353 334 353 183 173 168 165 168 167 170 171 168 166 165 166 168 171 170 171 177 178 173 174 177 179 182 182 180 188 185 176 184 181 176 177 182 182 179 182 185 189 193 198 191 201 199 193 190 197 199 211 208 208 205 215 212 204 187 206 207 202 214 228 244 264 275
209 155 137 171 151 161 180 165 197 174 186 155 11 120 216 153 345 18 352 66 63 51 45 39 59 70 93 120 116 112 78 51 29 20 352 201 178 169 167 170 172 173 169 167 168 168 168 171 173 175 168 178 176 177 176 182 185 188 188 193 178 193 182 190 179 177 176 176 184 182 190 190 192 199 194 200 193 191 204 198 206 215 220 215 203 207 211 197 203 203 204 219 224 229 251 266 282
268 149 118 108 229 141 163 190 139 129 127 32 360 83 18 77 38 21 37 75 79 85 70 68 66 105 98 69 116 100 94 78 66 56 349 337 328 196 171 168 175 175 169 169 168 167 170 173 176 177 173 176 179 177 181 182 183 187 187 198 187 193 189 185 181 178 178 179 181 184 189 191 197 193 202 192 199 187 200 204 205 217 210 214 204 198 197 193 198 188 203 202 225 232 241 254 262
272 47 185 204 214 13 116 63 113 114 65 66 89 108 95 89 32 5 7 74 68 83 94 86 89 116 119 116 73 82 86 87 82 95 113 326 323 349 87 152 176 175 170 172 170 172 173 171 175 177 174 173 179 183 181 182 180 182 192 195 191 190 188 181 186 185 183 185 180 187 188 196 191 190 197 197 197 194 198 199 201 210 196 200 194 194 192 193 182 182 187 191 213 232 219 237 253
70 72 251 267 187 137 121 144 124 65 112 84 156 140 143 178 132 280 110 102 98 66 56 44 43 94 140 126 122 105 97 94 108 136 148 239 285 332 45 65 119 151 174 178 174 176 174 173 174 174 173 175 181 182 182 182 182 186 189 192 197 189 188 182 186 186 187 181 191 192 192 191 197 195 195 197 191 196 199 200 194 199 196 194 192 189 187 185 179 188 183 190 201 189 207 234 249
137 182 208 84 345 51 318 105 96 111 77 128 4 19 122 313 158 183 169 141 113 96 93 79 54 71 104 113 112 109 108 106 113 113 139 311 15 3 52 96 106 110 101 151 183 177 175 177 177 174 177 179 178 181 182 183 184 189 192 193 191 192 190 180 182 187 185 189 193 199 199 201 200 197 195 190 191 194 194 197 191 193 193 196 195 194 190 188 188 200 207 209 221 183 194 228 248
75 71 14 151 112 155 79 224 161 113 140 136 167 6 189 281 167 178 192 145 127 127 112 104 91 68 75 101 101 100 91 83 76 77 70 60 76 34 16 61 72 78 90 96 129 178 184 182 179 182 180 173 172 177 177 184 188 188 191 191 192 190 190 184 181 181 189 197 201 197 205 206 208 201 202 192 189 189 190 190 192 192 192 195 193 201 189 193 194 204 207 211 228 204 213 228 249
2 52 312 3 324 206 152 356 112 145 148 175 136 168 254 256 328 160 162 135 110 108 98 94 87 78 67 59 88 101 92 74 64 70 81 95 101 80 22 4 21 67 64 84 110 116 151 166 164 156 146 139 140 153 180 185 179 188 182 192 197 192 196 191 189 187 188 197 206 205 204 209 204 209 202 198 192 189 187 189 189 192 193 195 197 199 196 187 193 206 209 206 214 204 212 230 225
154 149 209 189 203 323 317 273 355 98 125 158 155 154 123 46 65 80 47 4 103 102 101 83 64 64 57 49 60 77 84 82 79 70 73 78 65 80 87 102 80 64 84 87 94 113 122 143 159 156 157 164 163 158 148 165 174 183 187 189 195 196 195 197 197 198 198 197 204 208 209 209 209 214 200 201 199 196 191 189 189 193 194 196 198 200 201 189 197 205 216 207 206 204 212 226 225